Time,TemperatureF,DewpointF,PressureIn,WindDirection,WindDirectionDegrees,WindSpeedMPH,WindSpeedGustMPH,Humidity,HourlyPrecipIn,Conditions,Clouds,dailyrainin,SoftwareType,DateUTC
2013-05-13 00:00:00,50.5,25.2,0.00,North,0,0.0,0.0,37,0.00,,,0.00,VWS V12.08,2013-05-13 04:00:00,
2013-05-13 00:05:00,50.5,25.2,0.00,North,0,0.0,0.0,37,0.00,,,0.00,VWS V12.08,2013-05-13 04:05:00,
2013-05-13 00:10:00,50.5,25.2,0.00,North,0,0.0,0.0,37,0.00,,,0.00,VWS V12.08,2013-05-13 04:10:00,
2013-05-13 00:15:00,50.2,24.9,0.00,North,0,0.0,0.0,37,0.00,,,0.00,VWS V12.08,2013-05-13 04:15:00,
2013-05-13 00:20:00,50.2,24.9,0.00,North,0,0.0,0.0,37,0.00,,,0.00,VWS V12.08,2013-05-13 04:20:00,
2013-05-13 00:25:00,50.2,24.9,0.00,North,0,0.0,0.0,37,0.00,,,0.00,VWS V12.08,2013-05-13 04:25:00,
2013-05-13 00:29:00,48.7,23.6,0.00,North,0,0.0,0.0,37,0.00,,,0.00,VWS V12.08,2013-05-13 04:29:00,
2013-05-13 00:30:00,48.7,23.6,0.00,North,0,0.0,0.0,37,0.00,,,0.00,VWS V12.08,2013-05-13 04:30:00,
2013-05-13 00:34:00,50.2,24.9,0.00,North,0,0.0,0.0,37,0.00,,,0.00,VWS V12.08,2013-05-13 04:34:00,
2013-05-13 00:39:00,50.2,24.9,0.00,North,0,0.0,0.0,37,0.00,,,0.00,VWS V12.08,2013-05-13 04:39:00,
2013-05-13 00:44:00,50.0,24.8,0.00,North,0,0.0,0.0,37,0.00,,,0.00,VWS V12.08,2013-05-13 04:44:00,
2013-05-13 00:49:00,49.8,24.6,0.00,North,0,0.0,0.0,37,0.00,,,0.00,VWS V12.08,2013-05-13 04:49:00,
2013-05-13 00:54:00,49.6,24.5,0.00,North,0,0.0,0.0,37,0.00,,,0.00,VWS V12.08,2013-05-13 04:54:00,
2013-05-13 00:59:00,49.5,24.3,0.00,North,0,0.0,0.0,37,0.00,,,0.00,VWS V12.08,2013-05-13 04:59:00,
2013-05-13 01:04:00,49.5,24.3,0.00,North,0,0.0,0.0,37,0.00,,,0.00,VWS V12.08,2013-05-13 05:04:00,
2013-05-13 01:09:00,49.1,24.0,0.00,North,0,0.0,0.0,37,0.00,,,0.00,VWS V12.08,2013-05-13 05:09:00,
2013-05-13 01:14:00,48.9,23.8,0.00,North,0,0.0,0.0,37,0.00,,,0.00,VWS V12.08,2013-05-13 05:14:00,
2013-05-13 01:19:00,48.7,23.6,0.00,North,0,0.0,0.0,37,0.00,,,0.00,VWS V12.08,2013-05-13 05:19:00,
2013-05-13 01:24:00,48.7,23.6,0.00,North,0,0.0,0.0,37,0.00,,,0.00,VWS V12.08,2013-05-13 05:24:00,
2013-05-13 01:29:00,48.7,23.6,0.00,North,0,0.0,0.0,37,0.00,,,0.00,VWS V12.08,2013-05-13 05:29:00,
2013-05-13 01:30:00,47.7,26.3,0.00,North,0,0.0,0.0,43,0.00,,,0.00,VWS V12.08,2013-05-13 05:30:00,
2013-05-13 01:31:00,47.7,26.3,0.00,North,0,0.0,0.0,43,0.00,,,0.00,VWS V12.08,2013-05-13 05:31:00,
2013-05-13 01:32:00,47.7,26.3,0.00,North,0,0.0,0.0,43,0.00,,,0.00,VWS V12.08,2013-05-13 05:32:00,
2013-05-13 01:33:00,47.7,26.3,0.00,North,0,0.0,0.0,43,0.00,,,0.00,VWS V12.08,2013-05-13 05:33:00,
2013-05-13 01:34:00,48.7,27.3,0.00,North,0,0.0,0.0,43,0.00,,,0.00,VWS V12.08,2013-05-13 05:34:00,
2013-05-13 01:35:00,47.8,26.4,0.00,North,0,0.0,0.0,43,0.00,,,0.00,VWS V12.08,2013-05-13 05:35:00,
2013-05-13 01:39:00,48.7,27.3,0.00,North,0,0.0,0.0,43,0.00,,,0.00,VWS V12.08,2013-05-13 05:39:00,
2013-05-13 01:44:00,48.6,27.1,0.00,North,0,0.0,0.0,43,0.00,,,0.00,VWS V12.08,2013-05-13 05:44:00,
2013-05-13 01:49:00,48.4,26.9,0.00,North,0,0.0,0.0,43,0.00,,,0.00,VWS V12.08,2013-05-13 05:49:00,
2013-05-13 01:54:00,48.2,26.8,0.00,North,0,0.0,0.0,43,0.00,,,0.00,VWS V12.08,2013-05-13 05:54:00,
2013-05-13 01:59:00,48.2,26.8,0.00,North,0,0.0,0.0,43,0.00,,,0.00,VWS V12.08,2013-05-13 05:59:00,
2013-05-13 02:00:00,49.5,24.3,0.00,North,0,0.0,0.0,37,0.00,,,0.00,VWS V12.08,2013-05-13 06:00:00,
2013-05-13 02:04:00,48.2,26.8,0.00,North,0,0.0,0.0,43,0.00,,,0.00,VWS V12.08,2013-05-13 06:04:00,
2013-05-13 02:09:00,48.2,26.8,0.00,North,0,0.0,0.0,43,0.00,,,0.00,VWS V12.08,2013-05-13 06:09:00,
2013-05-13 02:14:00,48.0,26.6,0.00,North,0,0.0,0.0,43,0.00,,,0.00,VWS V12.08,2013-05-13 06:14:00,
2013-05-13 02:19:00,47.7,26.3,0.00,North,0,0.0,0.0,43,0.00,,,0.00,VWS V12.08,2013-05-13 06:19:00,
2013-05-13 02:24:00,47.7,26.3,0.00,North,0,0.0,0.0,43,0.00,,,0.00,VWS V12.08,2013-05-13 06:24:00,
2013-05-13 02:29:00,47.7,26.3,0.00,North,0,0.0,0.0,43,0.00,,,0.00,VWS V12.08,2013-05-13 06:29:00,
2013-05-13 02:30:00,47.1,25.8,0.00,North,0,0.0,0.0,43,0.00,,,0.00,VWS V12.08,2013-05-13 06:30:00,
2013-05-13 02:31:00,47.1,25.8,0.00,North,0,0.0,0.0,43,0.00,,,0.00,VWS V12.08,2013-05-13 06:31:00,
2013-05-13 02:32:00,47.1,25.8,0.00,North,0,0.0,0.0,43,0.00,,,0.00,VWS V12.08,2013-05-13 06:32:00,
2013-05-13 02:33:00,47.1,25.8,0.00,North,0,0.0,0.0,43,0.00,,,0.00,VWS V12.08,2013-05-13 06:33:00,
2013-05-13 02:34:00,47.7,26.3,0.00,North,0,0.0,0.0,43,0.00,,,0.00,VWS V12.08,2013-05-13 06:34:00,
2013-05-13 02:35:00,47.1,25.8,0.00,North,0,0.0,0.0,43,0.00,,,0.00,VWS V12.08,2013-05-13 06:35:00,
2013-05-13 02:39:00,47.7,26.3,0.00,North,0,0.0,0.0,43,0.00,,,0.00,VWS V12.08,2013-05-13 06:39:00,
2013-05-13 02:44:00,47.7,26.3,0.00,North,0,0.0,0.0,43,0.00,,,0.00,VWS V12.08,2013-05-13 06:44:00,
2013-05-13 02:49:00,47.7,26.3,0.00,North,0,0.0,0.0,43,0.00,,,0.00,VWS V12.08,2013-05-13 06:49:00,
2013-05-13 02:54:00,47.7,26.3,0.00,North,0,0.0,0.0,43,0.00,,,0.00,VWS V12.08,2013-05-13 06:54:00,
2013-05-13 02:59:00,47.5,26.1,0.00,North,0,0.0,0.0,43,0.00,,,0.00,VWS V12.08,2013-05-13 06:59:00,
2013-05-13 03:00:00,48.4,26.9,0.00,North,0,0.0,0.0,43,0.00,,,0.00,VWS V12.08,2013-05-13 07:00:00,
2013-05-13 03:04:00,47.5,26.1,0.00,North,0,0.0,0.0,43,0.00,,,0.00,VWS V12.08,2013-05-13 07:04:00,
2013-05-13 03:09:00,47.5,26.1,0.00,North,0,0.0,0.0,43,0.00,,,0.00,VWS V12.08,2013-05-13 07:09:00,
2013-05-13 03:14:00,47.5,26.1,0.00,North,0,0.0,0.0,43,0.00,,,0.00,VWS V12.08,2013-05-13 07:14:00,
2013-05-13 03:19:00,47.5,26.1,0.00,North,0,0.0,0.0,43,0.00,,,0.00,VWS V12.08,2013-05-13 07:19:00,
2013-05-13 03:24:00,47.5,26.1,0.00,North,0,0.0,0.0,43,0.00,,,0.00,VWS V12.08,2013-05-13 07:24:00,
2013-05-13 03:29:00,47.3,26.0,0.00,North,0,0.0,0.0,43,0.00,,,0.00,VWS V12.08,2013-05-13 07:29:00,
2013-05-13 03:30:00,46.6,25.3,0.00,North,0,0.0,0.0,43,0.00,,,0.00,VWS V12.08,2013-05-13 07:30:00,
2013-05-13 03:31:00,46.6,25.3,0.00,North,0,0.0,0.0,43,0.00,,,0.00,VWS V12.08,2013-05-13 07:31:00,
2013-05-13 03:32:00,46.6,25.3,0.00,North,0,0.0,0.0,43,0.00,,,0.00,VWS V12.08,2013-05-13 07:32:00,
2013-05-13 03:33:00,46.6,25.3,0.00,North,0,0.0,0.0,43,0.00,,,0.00,VWS V12.08,2013-05-13 07:33:00,
2013-05-13 03:34:00,47.1,25.8,0.00,North,0,0.0,0.0,43,0.00,,,0.00,VWS V12.08,2013-05-13 07:34:00,
2013-05-13 03:39:00,46.9,25.6,0.00,North,0,0.0,0.0,43,0.00,,,0.00,VWS V12.08,2013-05-13 07:39:00,
2013-05-13 03:44:00,46.9,25.6,0.00,North,0,0.0,0.0,43,0.00,,,0.00,VWS V12.08,2013-05-13 07:44:00,
2013-05-13 03:49:00,46.9,25.6,0.00,North,0,0.0,0.0,43,0.00,,,0.00,VWS V12.08,2013-05-13 07:49:00,
2013-05-13 03:54:00,46.9,25.6,0.00,North,0,0.0,0.0,43,0.00,,,0.00,VWS V12.08,2013-05-13 07:54:00,
2013-05-13 03:59:00,46.8,25.5,0.00,North,0,0.0,0.0,43,0.00,,,0.00,VWS V12.08,2013-05-13 07:59:00,
2013-05-13 04:00:00,47.5,26.1,0.00,North,0,0.0,0.0,43,0.00,,,0.00,VWS V12.08,2013-05-13 08:00:00,
2013-05-13 04:04:00,46.6,25.3,0.00,North,0,0.0,0.0,43,0.00,,,0.00,VWS V12.08,2013-05-13 08:04:00,
2013-05-13 04:09:00,46.4,25.1,0.00,North,0,0.0,0.0,43,0.00,,,0.00,VWS V12.08,2013-05-13 08:09:00,
2013-05-13 04:14:00,46.4,25.1,0.00,North,0,0.0,0.0,43,0.00,,,0.00,VWS V12.08,2013-05-13 08:14:00,
2013-05-13 04:19:00,46.6,25.3,0.00,North,0,0.0,0.0,43,0.00,,,0.00,VWS V12.08,2013-05-13 08:19:00,
2013-05-13 04:24:00,46.6,25.3,0.00,North,0,0.0,0.0,43,0.00,,,0.00,VWS V12.08,2013-05-13 08:24:00,
2013-05-13 04:29:00,46.6,25.3,0.00,North,0,0.0,0.0,43,0.00,,,0.00,VWS V12.08,2013-05-13 08:29:00,
2013-05-13 04:30:00,45.1,27.1,0.00,North,0,0.0,0.0,49,0.00,,,0.00,VWS V12.08,2013-05-13 08:30:00,
2013-05-13 04:31:00,45.1,27.1,0.00,North,0,0.0,0.0,49,0.00,,,0.00,VWS V12.08,2013-05-13 08:31:00,
2013-05-13 04:32:00,45.1,27.1,0.00,North,0,0.0,0.0,49,0.00,,,0.00,VWS V12.08,2013-05-13 08:32:00,
2013-05-13 04:33:00,45.1,27.1,0.00,North,0,0.0,0.0,49,0.00,,,0.00,VWS V12.08,2013-05-13 08:33:00,
2013-05-13 04:34:00,45.1,27.1,0.00,North,0,0.0,0.0,49,0.00,,,0.00,VWS V12.08,2013-05-13 08:34:00,
2013-05-13 04:35:00,46.6,25.3,0.00,North,0,0.0,0.0,43,0.00,,,0.00,VWS V12.08,2013-05-13 08:35:00,
2013-05-13 04:40:00,46.4,25.1,0.00,North,0,0.0,0.0,43,0.00,,,0.00,VWS V12.08,2013-05-13 08:40:00,
2013-05-13 04:45:00,46.6,25.3,0.00,North,0,0.0,0.0,43,0.00,,,0.00,VWS V12.08,2013-05-13 08:45:00,
2013-05-13 04:50:00,46.6,25.3,0.00,North,0,0.0,0.0,43,0.00,,,0.00,VWS V12.08,2013-05-13 08:50:00,
2013-05-13 04:55:00,46.4,25.1,0.00,North,0,0.0,0.0,43,0.00,,,0.00,VWS V12.08,2013-05-13 08:55:00,
2013-05-13 05:00:00,46.2,26.1,0.00,North,0,0.0,0.0,45,0.00,,,0.00,VWS V12.08,2013-05-13 09:00:00,
2013-05-13 05:05:00,46.2,26.1,0.00,North,0,0.0,0.0,45,0.00,,,0.00,VWS V12.08,2013-05-13 09:05:00,
2013-05-13 05:10:00,46.0,25.9,0.00,North,0,0.0,0.0,45,0.00,,,0.00,VWS V12.08,2013-05-13 09:10:00,
2013-05-13 05:15:00,46.0,25.9,0.00,North,0,0.0,0.0,45,0.00,,,0.00,VWS V12.08,2013-05-13 09:15:00,
2013-05-13 05:20:00,45.7,27.6,0.00,North,0,0.0,0.0,49,0.00,,,0.00,VWS V12.08,2013-05-13 09:20:00,
2013-05-13 05:25:00,45.3,27.3,0.00,North,0,0.0,0.0,49,0.00,,,0.00,VWS V12.08,2013-05-13 09:25:00,
2013-05-13 05:29:00,43.0,31.3,0.00,North,0,0.0,0.0,63,0.00,,,0.00,VWS V12.08,2013-05-13 09:29:00,
2013-05-13 05:30:00,45.1,27.1,0.00,North,0,0.0,0.0,49,0.00,,,0.00,VWS V12.08,2013-05-13 09:30:00,
2013-05-13 05:31:00,43.0,32.0,0.00,North,0,0.0,0.0,65,0.00,,,0.00,VWS V12.08,2013-05-13 09:31:00,
2013-05-13 05:32:00,43.0,32.0,0.00,North,0,0.0,0.0,65,0.00,,,0.00,VWS V12.08,2013-05-13 09:32:00,
2013-05-13 05:33:00,43.0,32.0,0.00,North,0,0.0,0.0,65,0.00,,,0.00,VWS V12.08,2013-05-13 09:33:00,
2013-05-13 05:34:00,42.8,31.9,0.00,North,0,0.0,0.0,65,0.00,,,0.00,VWS V12.08,2013-05-13 09:34:00,
2013-05-13 05:35:00,45.1,27.1,0.00,North,0,0.0,0.0,49,0.00,,,0.00,VWS V12.08,2013-05-13 09:35:00,
2013-05-13 05:40:00,44.8,29.6,0.00,North,0,0.0,0.0,55,0.00,,,0.00,VWS V12.08,2013-05-13 09:40:00,
2013-05-13 05:45:00,44.6,29.5,0.00,North,0,0.0,0.0,55,0.00,,,0.00,VWS V12.08,2013-05-13 09:45:00,
2013-05-13 05:50:00,44.2,31.7,0.00,North,0,0.0,0.0,61,0.00,,,0.00,VWS V12.08,2013-05-13 09:50:00,
2013-05-13 05:55:00,44.2,31.7,0.00,North,0,0.0,0.0,61,0.00,,,0.00,VWS V12.08,2013-05-13 09:55:00,
2013-05-13 06:00:00,44.1,31.5,0.00,North,0,0.0,0.0,61,0.00,,,0.00,VWS V12.08,2013-05-13 10:00:00,
2013-05-13 06:05:00,43.7,32.0,0.00,North,0,0.0,0.0,63,0.00,,,0.00,VWS V12.08,2013-05-13 10:05:00,
2013-05-13 06:10:00,43.5,31.8,0.00,North,0,0.0,0.0,63,0.00,,,0.00,VWS V12.08,2013-05-13 10:10:00,
2013-05-13 06:15:00,43.5,31.8,0.00,North,0,0.0,0.0,63,0.00,,,0.00,VWS V12.08,2013-05-13 10:15:00,
2013-05-13 06:20:00,43.5,31.8,0.00,North,0,0.0,0.0,63,0.00,,,0.00,VWS V12.08,2013-05-13 10:20:00,
2013-05-13 06:25:00,43.2,31.4,0.00,North,0,0.0,0.0,63,0.00,,,0.00,VWS V12.08,2013-05-13 10:25:00,
2013-05-13 06:29:00,43.7,33.5,0.00,North,0,0.0,0.0,67,0.00,,,0.00,VWS V12.08,2013-05-13 10:29:00,
2013-05-13 06:30:00,43.7,33.5,0.00,North,0,0.0,0.0,67,0.00,,,0.00,VWS V12.08,2013-05-13 10:30:00,
2013-05-13 06:31:00,43.7,33.5,0.00,North,0,0.0,0.0,67,0.00,,,0.00,VWS V12.08,2013-05-13 10:31:00,
2013-05-13 06:32:00,43.7,34.2,0.00,North,0,0.0,0.0,69,0.00,,,0.00,VWS V12.08,2013-05-13 10:32:00,
2013-05-13 06:33:00,43.7,34.2,0.00,North,0,0.0,0.0,69,0.00,,,0.00,VWS V12.08,2013-05-13 10:33:00,
2013-05-13 06:34:00,42.8,31.9,0.00,North,0,0.0,0.0,65,0.00,,,0.00,VWS V12.08,2013-05-13 10:34:00,
2013-05-13 06:39:00,42.8,31.9,0.00,North,0,0.0,0.0,65,0.00,,,0.00,VWS V12.08,2013-05-13 10:39:00,
2013-05-13 06:44:00,42.8,32.6,0.00,North,0,0.0,0.0,67,0.00,,,0.00,VWS V12.08,2013-05-13 10:44:00,
2013-05-13 06:49:00,42.8,32.6,0.00,North,0,0.0,0.0,67,0.00,,,0.00,VWS V12.08,2013-05-13 10:49:00,
2013-05-13 06:54:00,42.8,32.6,0.00,North,0,0.0,0.0,67,0.00,,,0.00,VWS V12.08,2013-05-13 10:54:00,
2013-05-13 06:59:00,42.6,33.2,0.00,North,0,0.0,0.0,69,0.00,,,0.00,VWS V12.08,2013-05-13 10:59:00,
2013-05-13 07:00:00,44.1,31.5,0.00,North,0,0.0,0.0,61,0.00,,,0.00,VWS V12.08,2013-05-13 11:00:00,
2013-05-13 07:04:00,42.6,33.2,0.00,North,0,0.0,0.0,69,0.00,,,0.00,VWS V12.08,2013-05-13 11:04:00,
2013-05-13 07:09:00,42.6,33.2,0.00,North,0,0.0,0.0,69,0.00,,,0.00,VWS V12.08,2013-05-13 11:09:00,
2013-05-13 07:14:00,42.8,32.6,0.00,North,0,0.0,0.0,67,0.00,,,0.00,VWS V12.08,2013-05-13 11:14:00,
2013-05-13 07:19:00,43.2,33.0,0.00,North,0,0.0,0.0,67,0.00,,,0.00,VWS V12.08,2013-05-13 11:19:00,
2013-05-13 07:24:00,43.3,33.1,0.00,North,0,0.0,0.0,67,0.00,,,0.00,VWS V12.08,2013-05-13 11:24:00,
2013-05-13 07:29:00,43.7,33.5,0.00,North,0,0.0,0.0,67,0.00,,,0.00,VWS V12.08,2013-05-13 11:29:00,
2013-05-13 07:30:00,46.8,35.6,0.00,North,0,0.0,0.0,65,0.00,,,0.00,VWS V12.08,2013-05-13 11:30:00,
2013-05-13 07:31:00,46.8,35.6,0.00,North,0,0.0,0.0,65,0.00,,,0.00,VWS V12.08,2013-05-13 11:31:00,
2013-05-13 07:32:00,46.8,35.6,0.00,North,0,0.0,0.0,65,0.00,,,0.00,VWS V12.08,2013-05-13 11:32:00,
2013-05-13 07:33:00,46.9,35.8,0.00,North,0,0.0,0.0,65,0.00,,,0.00,VWS V12.08,2013-05-13 11:33:00,
2013-05-13 07:34:00,46.9,35.0,0.00,North,0,0.0,0.0,63,0.00,,,0.00,VWS V12.08,2013-05-13 11:34:00,
2013-05-13 07:35:00,43.7,34.2,0.00,North,0,0.0,0.0,69,0.00,,,0.00,VWS V12.08,2013-05-13 11:35:00,
2013-05-13 07:40:00,43.9,34.4,0.00,North,0,0.0,0.0,69,0.00,,,0.00,VWS V12.08,2013-05-13 11:40:00,
2013-05-13 07:45:00,44.1,34.6,0.00,North,0,0.0,0.0,69,0.00,,,0.00,VWS V12.08,2013-05-13 11:45:00,
2013-05-13 07:50:00,44.1,35.3,0.00,North,0,0.0,0.0,71,0.00,,,0.00,VWS V12.08,2013-05-13 11:50:00,
2013-05-13 07:55:00,44.2,36.2,0.00,North,0,0.0,0.0,73,0.00,,,0.00,VWS V12.08,2013-05-13 11:55:00,
2013-05-13 08:00:00,44.6,35.8,0.00,North,0,0.0,0.0,71,0.00,,,0.00,VWS V12.08,2013-05-13 12:00:00,
2013-05-13 08:05:00,44.8,36.0,0.00,North,0,0.0,0.0,71,0.00,,,0.00,VWS V12.08,2013-05-13 12:05:00,
2013-05-13 08:10:00,45.3,36.5,0.00,North,0,0.0,0.0,71,0.00,,,0.00,VWS V12.08,2013-05-13 12:10:00,
2013-05-13 08:15:00,45.5,35.9,0.00,North,0,0.0,0.0,69,0.00,,,0.00,VWS V12.08,2013-05-13 12:15:00,
2013-05-13 08:20:00,45.9,36.3,0.00,North,0,0.0,0.0,69,0.00,,,0.00,VWS V12.08,2013-05-13 12:20:00,
2013-05-13 08:25:00,46.2,35.9,0.00,North,0,0.0,0.0,67,0.00,,,0.00,VWS V12.08,2013-05-13 12:25:00,
2013-05-13 08:29:00,52.7,29.7,0.00,North,0,0.0,0.0,41,0.00,,,0.00,VWS V12.08,2013-05-13 12:29:00,
2013-05-13 08:30:00,46.6,35.5,0.00,North,0,0.0,0.0,65,0.00,,,0.00,VWS V12.08,2013-05-13 12:30:00,
2013-05-13 08:31:00,52.9,29.8,0.00,North,0,0.0,0.0,41,0.00,,,0.00,VWS V12.08,2013-05-13 12:31:00,
2013-05-13 08:32:00,52.9,29.8,0.00,North,0,0.0,0.0,41,0.00,,,0.00,VWS V12.08,2013-05-13 12:32:00,
2013-05-13 08:33:00,53.1,30.0,0.00,North,0,0.0,0.0,41,0.00,,,0.00,VWS V12.08,2013-05-13 12:33:00,
2013-05-13 08:34:00,53.1,30.0,0.00,North,0,0.0,0.0,41,0.00,,,0.00,VWS V12.08,2013-05-13 12:34:00,
2013-05-13 08:35:00,46.9,35.8,0.00,North,0,0.0,0.0,65,0.00,,,0.00,VWS V12.08,2013-05-13 12:35:00,
2013-05-13 08:40:00,47.3,35.4,0.00,North,0,0.0,0.0,63,0.00,,,0.00,VWS V12.08,2013-05-13 12:40:00,
2013-05-13 08:45:00,47.5,35.5,0.00,North,0,0.0,0.0,63,0.00,,,0.00,VWS V12.08,2013-05-13 12:45:00,
2013-05-13 08:50:00,47.8,35.9,0.00,North,0,0.0,0.0,63,0.00,,,0.00,VWS V12.08,2013-05-13 12:50:00,
2013-05-13 08:55:00,48.4,35.6,0.00,North,0,0.0,0.0,61,0.00,,,0.00,VWS V12.08,2013-05-13 12:55:00,
2013-05-13 09:00:00,48.9,35.2,0.00,North,0,0.0,0.0,59,0.00,,,0.00,VWS V12.08,2013-05-13 13:00:00,
2013-05-13 09:05:00,49.3,35.6,0.00,North,0,0.0,0.0,59,0.00,,,0.00,VWS V12.08,2013-05-13 13:05:00,
2013-05-13 09:10:00,49.6,35.0,0.00,North,0,0.0,0.0,57,0.00,,,0.00,VWS V12.08,2013-05-13 13:10:00,
2013-05-13 09:15:00,50.4,30.9,0.00,North,0,0.0,0.0,47,0.00,,,0.00,VWS V12.08,2013-05-13 13:15:00,
2013-05-13 09:20:00,51.3,29.5,0.00,North,0,0.0,0.0,43,0.00,,,0.00,VWS V12.08,2013-05-13 13:20:00,
2013-05-13 09:25:00,52.0,29.0,0.00,North,0,0.0,0.0,41,0.00,,,0.00,VWS V12.08,2013-05-13 13:25:00,
2013-05-13 09:29:00,60.1,35.1,0.00,North,0,0.0,0.0,39,0.00,,,0.00,VWS V12.08,2013-05-13 13:29:00,
2013-05-13 09:30:00,52.7,29.7,0.00,North,0,0.0,0.0,41,0.00,,,0.00,VWS V12.08,2013-05-13 13:30:00,
2013-05-13 09:31:00,60.3,35.2,0.00,North,0,0.0,0.0,39,0.00,,,0.00,VWS V12.08,2013-05-13 13:31:00,
2013-05-13 09:32:00,60.4,35.4,0.00,North,0,0.0,0.0,39,0.00,,,0.00,VWS V12.08,2013-05-13 13:32:00,
2013-05-13 09:33:00,60.6,35.5,0.00,North,0,0.0,0.0,39,0.00,,,0.00,VWS V12.08,2013-05-13 13:33:00,
2013-05-13 09:34:00,60.6,35.5,0.00,North,0,0.0,0.0,39,0.00,,,0.00,VWS V12.08,2013-05-13 13:34:00,
2013-05-13 09:35:00,53.2,30.2,0.00,North,0,0.0,0.0,41,0.00,,,0.00,VWS V12.08,2013-05-13 13:35:00,
2013-05-13 09:40:00,53.8,30.6,0.00,North,0,0.0,0.0,41,0.00,,,0.00,VWS V12.08,2013-05-13 13:40:00,
2013-05-13 09:45:00,54.5,31.3,0.00,North,0,0.0,0.0,41,0.00,,,0.00,VWS V12.08,2013-05-13 13:45:00,
2013-05-13 09:50:00,55.0,31.8,0.00,North,0,0.0,0.0,41,0.00,,,0.00,VWS V12.08,2013-05-13 13:50:00,
2013-05-13 09:55:00,55.8,31.2,0.00,North,0,0.0,0.0,39,0.00,,,0.00,VWS V12.08,2013-05-13 13:55:00,
2013-05-13 10:00:00,56.3,31.7,0.00,North,0,0.0,0.0,39,0.00,,,0.00,VWS V12.08,2013-05-13 14:00:00,
2013-05-13 10:05:00,56.8,32.2,0.00,North,0,0.0,0.0,39,0.00,,,0.00,VWS V12.08,2013-05-13 14:05:00,
2013-05-13 10:10:00,57.4,32.7,0.00,North,0,0.0,0.0,39,0.00,,,0.00,VWS V12.08,2013-05-13 14:10:00,
2013-05-13 10:15:00,58.1,33.3,0.00,North,0,0.0,0.0,39,0.00,,,0.00,VWS V12.08,2013-05-13 14:15:00,
2013-05-13 10:20:00,58.8,33.9,0.00,North,0,0.0,0.0,39,0.00,,,0.00,VWS V12.08,2013-05-13 14:20:00,
2013-05-13 10:25:00,59.5,34.6,0.00,North,0,0.0,0.0,39,0.00,,,0.00,VWS V12.08,2013-05-13 14:25:00,
2013-05-13 10:29:00,66.2,37.8,0.00,North,0,0.0,0.0,35,0.00,,,0.00,VWS V12.08,2013-05-13 14:29:00,
2013-05-13 10:30:00,66.0,37.6,0.00,North,0,0.0,0.0,35,0.00,,,0.00,VWS V12.08,2013-05-13 14:30:00,
2013-05-13 10:31:00,66.0,37.6,0.00,North,0,0.0,0.0,35,0.00,,,0.00,VWS V12.08,2013-05-13 14:31:00,
2013-05-13 10:32:00,65.8,37.5,0.00,North,0,0.0,0.0,35,0.00,,,0.00,VWS V12.08,2013-05-13 14:32:00,
2013-05-13 10:33:00,60.4,35.4,0.00,North,0,0.0,0.0,39,0.00,,,0.00,VWS V12.08,2013-05-13 14:33:00,
2013-05-13 10:34:00,65.8,37.5,0.00,North,0,0.0,0.0,35,0.00,,,0.00,VWS V12.08,2013-05-13 14:34:00,
2013-05-13 10:38:00,61.0,34.5,0.00,North,0,0.0,0.0,37,0.00,,,0.00,VWS V12.08,2013-05-13 14:38:00,
2013-05-13 10:43:00,61.7,35.2,0.00,North,0,0.0,0.0,37,0.00,,,0.00,VWS V12.08,2013-05-13 14:43:00,
2013-05-13 10:48:00,62.1,35.5,0.00,North,0,0.0,0.0,37,0.00,,,0.00,VWS V12.08,2013-05-13 14:48:00,
2013-05-13 10:53:00,62.2,35.7,0.00,North,0,0.0,0.0,37,0.00,,,0.00,VWS V12.08,2013-05-13 14:53:00,
2013-05-13 10:58:00,62.8,36.2,0.00,North,0,0.0,0.0,37,0.00,,,0.00,VWS V12.08,2013-05-13 14:58:00,
2013-05-13 11:00:00,56.3,31.7,0.00,North,0,0.0,0.0,39,0.00,,,0.00,VWS V12.08,2013-05-13 15:00:00,
2013-05-13 11:03:00,63.0,36.3,0.00,North,0,0.0,0.0,37,0.00,,,0.00,VWS V12.08,2013-05-13 15:03:00,
2013-05-13 11:08:00,63.7,37.0,0.00,North,0,0.0,0.0,37,0.00,,,0.00,VWS V12.08,2013-05-13 15:08:00,
2013-05-13 11:13:00,64.0,37.3,0.00,North,0,0.0,0.0,37,0.00,,,0.00,VWS V12.08,2013-05-13 15:13:00,
2013-05-13 11:18:00,64.2,37.4,0.00,North,0,0.0,0.0,37,0.00,,,0.00,VWS V12.08,2013-05-13 15:18:00,
2013-05-13 11:23:00,64.9,36.7,0.00,North,0,0.0,0.0,35,0.00,,,0.00,VWS V12.08,2013-05-13 15:23:00,
2013-05-13 11:28:00,66.0,37.6,0.00,North,0,0.0,0.0,35,0.00,,,0.00,VWS V12.08,2013-05-13 15:28:00,
2013-05-13 11:29:00,68.5,39.8,0.00,North,0,0.0,0.0,35,0.00,,,0.00,VWS V12.08,2013-05-13 15:29:00,
2013-05-13 11:30:00,68.5,39.8,0.00,North,0,0.0,0.0,35,0.00,,,0.00,VWS V12.08,2013-05-13 15:30:00,
2013-05-13 11:31:00,68.4,39.7,0.00,North,0,0.0,0.0,35,0.00,,,0.00,VWS V12.08,2013-05-13 15:31:00,
2013-05-13 11:32:00,68.4,39.7,0.00,North,0,0.0,0.0,35,0.00,,,0.00,VWS V12.08,2013-05-13 15:32:00,
2013-05-13 11:34:00,65.8,37.5,0.00,North,0,0.0,0.0,35,0.00,,,0.00,VWS V12.08,2013-05-13 15:34:00,
2013-05-13 11:39:00,66.0,37.6,0.00,North,0,0.0,0.0,35,0.00,,,0.00,VWS V12.08,2013-05-13 15:39:00,
2013-05-13 11:44:00,65.8,37.5,0.00,North,0,0.0,0.0,35,0.00,,,0.00,VWS V12.08,2013-05-13 15:44:00,
2013-05-13 11:49:00,66.4,37.9,0.00,North,0,0.0,0.0,35,0.00,,,0.00,VWS V12.08,2013-05-13 15:49:00,
2013-05-13 11:54:00,66.2,37.8,0.00,North,0,0.0,0.0,35,0.00,,,0.00,VWS V12.08,2013-05-13 15:54:00,
2013-05-13 11:59:00,66.6,38.1,0.00,North,0,0.0,0.0,35,0.00,,,0.00,VWS V12.08,2013-05-13 15:59:00,
2013-05-13 12:04:00,66.6,38.1,0.00,North,0,0.0,0.0,35,0.00,,,0.00,VWS V12.08,2013-05-13 16:04:00,
2013-05-13 12:09:00,66.9,38.4,0.00,North,0,0.0,0.0,35,0.00,,,0.00,VWS V12.08,2013-05-13 16:09:00,
2013-05-13 12:14:00,67.1,38.6,0.00,North,0,0.0,0.0,35,0.00,,,0.00,VWS V12.08,2013-05-13 16:14:00,
2013-05-13 12:19:00,67.6,39.0,0.00,North,0,0.0,0.0,35,0.00,,,0.00,VWS V12.08,2013-05-13 16:19:00,
2013-05-13 12:24:00,68.4,39.7,0.00,North,0,0.0,0.0,35,0.00,,,0.00,VWS V12.08,2013-05-13 16:24:00,
2013-05-13 12:29:00,68.4,39.7,0.00,North,0,0.0,0.0,35,0.00,,,0.00,VWS V12.08,2013-05-13 16:29:00,
2013-05-13 12:30:00,71.4,40.8,0.00,North,0,0.0,0.0,33,0.00,,,0.00,VWS V12.08,2013-05-13 16:30:00,
2013-05-13 12:31:00,71.6,41.0,0.00,North,0,0.0,0.0,33,0.00,,,0.00,VWS V12.08,2013-05-13 16:31:00,
2013-05-13 12:32:00,71.6,41.0,0.00,North,0,0.0,0.0,33,0.00,,,0.00,VWS V12.08,2013-05-13 16:32:00,
2013-05-13 12:33:00,72.0,41.3,0.00,North,0,0.0,0.0,33,0.00,,,0.00,VWS V12.08,2013-05-13 16:33:00,
2013-05-13 12:34:00,68.4,39.7,0.00,North,0,0.0,0.0,35,0.00,,,0.00,VWS V12.08,2013-05-13 16:34:00,
2013-05-13 12:35:00,72.3,41.6,0.00,North,0,0.0,0.0,33,0.00,,,0.00,VWS V12.08,2013-05-13 16:35:00,
2013-05-13 12:36:00,72.3,41.6,0.00,North,0,0.0,0.0,33,0.00,,,0.00,VWS V12.08,2013-05-13 16:36:00,
2013-05-13 12:39:00,68.9,40.2,0.00,North,0,0.0,0.0,35,0.00,,,0.00,VWS V12.08,2013-05-13 16:39:00,
2013-05-13 12:44:00,69.1,40.3,0.00,North,0,0.0,0.0,35,0.00,,,0.00,VWS V12.08,2013-05-13 16:44:00,
2013-05-13 12:49:00,69.3,40.5,0.00,North,0,0.0,0.0,35,0.00,,,0.00,VWS V12.08,2013-05-13 16:49:00,
2013-05-13 12:54:00,69.4,40.6,0.00,North,0,0.0,0.0,35,0.00,,,0.00,VWS V12.08,2013-05-13 16:54:00,
2013-05-13 12:59:00,69.8,39.4,0.00,North,0,0.0,0.0,33,0.00,,,0.00,VWS V12.08,2013-05-13 16:59:00,
2013-05-13 13:00:00,66.6,38.1,0.00,North,0,0.0,0.0,35,0.00,,,0.00,VWS V12.08,2013-05-13 17:00:00,
2013-05-13 13:04:00,69.8,39.4,0.00,North,0,0.0,0.0,33,0.00,,,0.00,VWS V12.08,2013-05-13 17:04:00,
2013-05-13 13:09:00,70.3,39.9,0.00,North,0,0.0,0.0,33,0.00,,,0.00,VWS V12.08,2013-05-13 17:09:00,
2013-05-13 13:14:00,70.5,40.1,0.00,North,0,0.0,0.0,33,0.00,,,0.00,VWS V12.08,2013-05-13 17:14:00,
2013-05-13 13:19:00,70.9,40.4,0.00,North,0,0.0,0.0,33,0.00,,,0.00,VWS V12.08,2013-05-13 17:19:00,
2013-05-13 13:24:00,71.1,40.5,0.00,North,0,0.0,0.0,33,0.00,,,0.00,VWS V12.08,2013-05-13 17:24:00,
2013-05-13 13:29:00,71.4,40.8,0.00,North,0,0.0,0.0,33,0.00,,,0.00,VWS V12.08,2013-05-13 17:29:00,
2013-05-13 13:30:00,73.6,41.1,0.00,North,0,0.0,0.0,31,0.00,,,0.00,VWS V12.08,2013-05-13 17:30:00,
2013-05-13 13:31:00,73.9,41.4,0.00,North,0,0.0,0.0,31,0.00,,,0.00,VWS V12.08,2013-05-13 17:31:00,
2013-05-13 13:32:00,73.9,41.4,0.00,North,0,0.0,0.0,31,0.00,,,0.00,VWS V12.08,2013-05-13 17:32:00,
2013-05-13 13:33:00,74.3,41.7,0.00,North,0,0.0,0.0,31,0.00,,,0.00,VWS V12.08,2013-05-13 17:33:00,
2013-05-13 13:34:00,74.3,41.7,0.00,North,0,0.0,0.0,31,0.00,,,0.00,VWS V12.08,2013-05-13 17:34:00,
2013-05-13 13:35:00,72.1,41.5,0.00,North,0,0.0,0.0,33,0.00,,,0.00,VWS V12.08,2013-05-13 17:35:00,
2013-05-13 13:40:00,72.5,41.8,0.00,North,0,0.0,0.0,33,0.00,,,0.00,VWS V12.08,2013-05-13 17:40:00,
2013-05-13 13:45:00,72.1,41.5,0.00,North,0,0.0,0.0,33,0.00,,,0.00,VWS V12.08,2013-05-13 17:45:00,
2013-05-13 13:50:00,72.3,41.6,0.00,North,0,0.0,0.0,33,0.00,,,0.00,VWS V12.08,2013-05-13 17:50:00,
2013-05-13 13:55:00,71.8,41.2,0.00,North,0,0.0,0.0,33,0.00,,,0.00,VWS V12.08,2013-05-13 17:55:00,
2013-05-13 14:00:00,71.4,40.8,0.00,North,0,0.0,0.0,33,0.00,,,0.00,VWS V12.08,2013-05-13 18:00:00,
2013-05-13 14:05:00,71.1,40.5,0.00,North,0,0.0,0.0,33,0.00,,,0.00,VWS V12.08,2013-05-13 18:05:00,
2013-05-13 14:10:00,72.1,41.5,0.00,North,0,0.0,0.0,33,0.00,,,0.00,VWS V12.08,2013-05-13 18:10:00,
2013-05-13 14:15:00,73.2,42.4,0.00,North,0,0.0,0.0,33,0.00,,,0.00,VWS V12.08,2013-05-13 18:15:00,
2013-05-13 14:20:00,73.2,42.4,0.00,North,0,0.0,0.0,33,0.00,,,0.00,VWS V12.08,2013-05-13 18:20:00,
2013-05-13 14:25:00,73.2,42.4,0.00,North,0,0.0,0.0,33,0.00,,,0.00,VWS V12.08,2013-05-13 18:25:00,
2013-05-13 14:29:00,73.4,41.0,0.00,North,0,0.0,0.0,31,0.00,,,0.00,VWS V12.08,2013-05-13 18:29:00,
2013-05-13 14:30:00,73.4,41.0,0.00,North,0,0.0,0.0,31,0.00,,,0.00,VWS V12.08,2013-05-13 18:30:00,
2013-05-13 14:35:00,74.3,41.7,0.00,North,0,0.0,0.0,31,0.00,,,0.00,VWS V12.08,2013-05-13 18:35:00,
2013-05-13 14:40:00,74.3,41.7,0.00,North,0,0.0,0.0,31,0.00,,,0.00,VWS V12.08,2013-05-13 18:40:00,
2013-05-13 14:45:00,74.3,41.7,0.00,North,0,0.0,0.0,31,0.00,,,0.00,VWS V12.08,2013-05-13 18:45:00,
2013-05-13 14:50:00,74.5,41.9,0.00,North,0,0.0,0.0,31,0.00,,,0.00,VWS V12.08,2013-05-13 18:50:00,
2013-05-13 14:55:00,74.3,41.7,0.00,North,0,0.0,0.0,31,0.00,,,0.00,VWS V12.08,2013-05-13 18:55:00,
2013-05-13 15:00:00,74.7,42.0,0.00,North,0,0.0,0.0,31,0.00,,,0.00,VWS V12.08,2013-05-13 19:00:00,
2013-05-13 15:05:00,74.8,42.2,0.00,North,0,0.0,0.0,31,0.00,,,0.00,VWS V12.08,2013-05-13 19:05:00,
2013-05-13 15:10:00,73.9,41.4,0.00,North,0,0.0,0.0,31,0.00,,,0.00,VWS V12.08,2013-05-13 19:10:00,
2013-05-13 15:15:00,73.6,41.1,0.00,North,0,0.0,0.0,31,0.00,,,0.00,VWS V12.08,2013-05-13 19:15:00,
2013-05-13 15:20:00,73.2,42.4,0.00,North,0,0.0,0.0,33,0.00,,,0.00,VWS V12.08,2013-05-13 19:20:00,
2013-05-13 15:25:00,73.4,41.0,0.00,North,0,0.0,0.0,31,0.00,,,0.00,VWS V12.08,2013-05-13 19:25:00,
2013-05-13 15:29:00,75.0,42.4,0.00,North,0,0.0,0.0,31,0.00,,,0.00,VWS V12.08,2013-05-13 19:29:00,
2013-05-13 15:30:00,73.2,42.4,0.00,North,0,0.0,0.0,33,0.00,,,0.00,VWS V12.08,2013-05-13 19:30:00,
2013-05-13 15:31:00,74.7,42.0,0.00,North,0,0.0,0.0,31,0.00,,,0.00,VWS V12.08,2013-05-13 19:31:00,
2013-05-13 15:32:00,74.7,42.0,0.00,North,0,0.0,0.0,31,0.00,,,0.00,VWS V12.08,2013-05-13 19:32:00,
2013-05-13 15:33:00,74.5,41.9,0.00,North,0,0.0,0.0,31,0.00,,,0.00,VWS V12.08,2013-05-13 19:33:00,
2013-05-13 15:34:00,74.5,41.9,0.00,North,0,0.0,0.0,31,0.00,,,0.00,VWS V12.08,2013-05-13 19:34:00,
2013-05-13 15:35:00,73.8,41.3,0.00,North,0,0.0,0.0,31,0.00,,,0.00,VWS V12.08,2013-05-13 19:35:00,
2013-05-13 15:40:00,74.3,41.7,0.00,North,0,0.0,0.0,31,0.00,,,0.00,VWS V12.08,2013-05-13 19:40:00,
2013-05-13 15:45:00,75.0,42.4,0.00,North,0,0.0,0.0,31,0.00,,,0.00,VWS V12.08,2013-05-13 19:45:00,
2013-05-13 15:50:00,75.0,42.4,0.00,North,0,0.0,0.0,31,0.00,,,0.00,VWS V12.08,2013-05-13 19:50:00,
2013-05-13 15:55:00,74.5,41.9,0.00,North,0,0.0,0.0,31,0.00,,,0.00,VWS V12.08,2013-05-13 19:55:00,
2013-05-13 16:00:00,73.8,41.3,0.00,North,0,0.0,0.0,31,0.00,,,0.00,VWS V12.08,2013-05-13 20:00:00,
2013-05-13 16:05:00,73.8,41.3,0.00,North,0,0.0,0.0,31,0.00,,,0.00,VWS V12.08,2013-05-13 20:05:00,
2013-05-13 16:10:00,73.4,41.0,0.00,North,0,0.0,0.0,31,0.00,,,0.00,VWS V12.08,2013-05-13 20:10:00,
2013-05-13 16:15:00,73.6,41.1,0.00,North,0,0.0,0.0,31,0.00,,,0.00,VWS V12.08,2013-05-13 20:15:00,
2013-05-13 16:20:00,73.9,41.4,0.00,North,0,0.0,0.0,31,0.00,,,0.00,VWS V12.08,2013-05-13 20:20:00,
2013-05-13 16:25:00,74.3,41.7,0.00,North,0,0.0,0.0,31,0.00,,,0.00,VWS V12.08,2013-05-13 20:25:00,
2013-05-13 16:29:00,72.5,41.8,0.00,North,0,0.0,0.0,33,0.00,,,0.00,VWS V12.08,2013-05-13 20:29:00,
2013-05-13 16:30:00,72.5,41.8,0.00,North,0,0.0,0.0,33,0.00,,,0.00,VWS V12.08,2013-05-13 20:30:00,
2013-05-13 16:31:00,72.5,41.8,0.00,North,0,0.0,0.0,33,0.00,,,0.00,VWS V12.08,2013-05-13 20:31:00,
2013-05-13 16:32:00,72.3,41.6,0.00,North,0,0.0,0.0,33,0.00,,,0.00,VWS V12.08,2013-05-13 20:32:00,
2013-05-13 16:33:00,72.3,41.6,0.00,North,0,0.0,0.0,33,0.00,,,0.00,VWS V12.08,2013-05-13 20:33:00,
2013-05-13 16:34:00,74.5,41.9,0.00,North,0,0.0,0.0,31,0.00,,,0.00,VWS V12.08,2013-05-13 20:34:00,
2013-05-13 16:39:00,74.1,41.6,0.00,North,0,0.0,0.0,31,0.00,,,0.00,VWS V12.08,2013-05-13 20:39:00,
2013-05-13 16:44:00,73.8,41.3,0.00,North,0,0.0,0.0,31,0.00,,,0.00,VWS V12.08,2013-05-13 20:44:00,
2013-05-13 16:49:00,73.6,41.1,0.00,North,0,0.0,0.0,31,0.00,,,0.00,VWS V12.08,2013-05-13 20:49:00,
2013-05-13 16:54:00,72.9,42.1,0.00,North,0,0.0,0.0,33,0.00,,,0.00,VWS V12.08,2013-05-13 20:54:00,
2013-05-13 16:59:00,72.3,41.6,0.00,North,0,0.0,0.0,33,0.00,,,0.00,VWS V12.08,2013-05-13 20:59:00,
2013-05-13 17:00:00,73.8,41.3,0.00,North,0,0.0,0.0,31,0.00,,,0.00,VWS V12.08,2013-05-13 21:00:00,
2013-05-13 17:04:00,72.9,42.1,0.00,North,0,0.0,0.0,33,0.00,,,0.00,VWS V12.08,2013-05-13 21:04:00,
2013-05-13 17:09:00,73.2,42.4,0.00,North,0,0.0,0.0,33,0.00,,,0.00,VWS V12.08,2013-05-13 21:09:00,
2013-05-13 17:14:00,73.0,42.3,0.00,North,0,0.0,0.0,33,0.00,,,0.00,VWS V12.08,2013-05-13 21:14:00,
2013-05-13 17:19:00,72.5,41.8,0.00,North,0,0.0,0.0,33,0.00,,,0.00,VWS V12.08,2013-05-13 21:19:00,
2013-05-13 17:24:00,72.7,42.0,0.00,North,0,0.0,0.0,33,0.00,,,0.00,VWS V12.08,2013-05-13 21:24:00,
2013-05-13 17:29:00,72.7,42.0,0.00,North,0,0.0,0.0,33,0.00,,,0.00,VWS V12.08,2013-05-13 21:29:00,
2013-05-13 17:30:00,68.5,39.8,0.00,North,0,0.0,0.0,35,0.00,,,0.00,VWS V12.08,2013-05-13 21:30:00,
2013-05-13 17:34:00,72.3,41.6,0.00,North,0,0.0,0.0,33,0.00,,,0.00,VWS V12.08,2013-05-13 21:34:00,
2013-05-13 17:40:00,72.3,41.6,0.00,North,0,0.0,0.0,33,0.00,,,0.00,VWS V12.08,2013-05-13 21:40:00,
2013-05-13 17:45:00,71.6,41.0,0.00,North,0,0.0,0.0,33,0.00,,,0.00,VWS V12.08,2013-05-13 21:45:00,
2013-05-13 17:50:00,71.4,40.8,0.00,North,0,0.0,0.0,33,0.00,,,0.00,VWS V12.08,2013-05-13 21:50:00,
2013-05-13 17:55:00,71.2,40.7,0.00,North,0,0.0,0.0,33,0.00,,,0.00,VWS V12.08,2013-05-13 21:55:00,
2013-05-13 18:00:00,70.7,40.2,0.00,North,0,0.0,0.0,33,0.00,,,0.00,VWS V12.08,2013-05-13 22:00:00,
2013-05-13 18:05:00,70.3,39.9,0.00,North,0,0.0,0.0,33,0.00,,,0.00,VWS V12.08,2013-05-13 22:05:00,
2013-05-13 18:10:00,70.0,39.6,0.00,North,0,0.0,0.0,33,0.00,,,0.00,VWS V12.08,2013-05-13 22:10:00,
2013-05-13 18:15:00,69.8,39.4,0.00,North,0,0.0,0.0,33,0.00,,,0.00,VWS V12.08,2013-05-13 22:15:00,
2013-05-13 18:20:00,69.4,40.6,0.00,North,0,0.0,0.0,35,0.00,,,0.00,VWS V12.08,2013-05-13 22:20:00,
2013-05-13 18:25:00,68.9,40.2,0.00,North,0,0.0,0.0,35,0.00,,,0.00,VWS V12.08,2013-05-13 22:25:00,
2013-05-13 18:29:00,66.0,37.6,0.00,North,0,0.0,0.0,35,0.00,,,0.00,VWS V12.08,2013-05-13 22:29:00,
2013-05-13 18:30:00,68.7,40.0,0.00,North,0,0.0,0.0,35,0.00,,,0.00,VWS V12.08,2013-05-13 22:30:00,
2013-05-13 18:31:00,66.0,37.6,0.00,North,0,0.0,0.0,35,0.00,,,0.00,VWS V12.08,2013-05-13 22:31:00,
2013-05-13 18:32:00,65.8,37.5,0.00,North,0,0.0,0.0,35,0.00,,,0.00,VWS V12.08,2013-05-13 22:32:00,
2013-05-13 18:33:00,65.8,37.5,0.00,North,0,0.0,0.0,35,0.00,,,0.00,VWS V12.08,2013-05-13 22:33:00,
2013-05-13 18:34:00,65.8,37.5,0.00,North,0,0.0,0.0,35,0.00,,,0.00,VWS V12.08,2013-05-13 22:34:00,
2013-05-13 18:35:00,68.4,39.7,0.00,North,0,0.0,0.0,35,0.00,,,0.00,VWS V12.08,2013-05-13 22:35:00,
2013-05-13 18:40:00,68.0,39.3,0.00,North,0,0.0,0.0,35,0.00,,,0.00,VWS V12.08,2013-05-13 22:40:00,
2013-05-13 18:45:00,67.8,39.2,0.00,North,0,0.0,0.0,35,0.00,,,0.00,VWS V12.08,2013-05-13 22:45:00,
2013-05-13 18:50:00,67.6,39.0,0.00,North,0,0.0,0.0,35,0.00,,,0.00,VWS V12.08,2013-05-13 22:50:00,
2013-05-13 18:55:00,67.5,38.9,0.00,North,0,0.0,0.0,35,0.00,,,0.00,VWS V12.08,2013-05-13 22:55:00,
2013-05-13 19:00:00,67.3,38.7,0.00,North,0,0.0,0.0,35,0.00,,,0.00,VWS V12.08,2013-05-13 23:00:00,
2013-05-13 19:05:00,67.1,38.6,0.00,North,0,0.0,0.0,35,0.00,,,0.00,VWS V12.08,2013-05-13 23:05:00,
2013-05-13 19:10:00,66.9,38.4,0.00,North,0,0.0,0.0,35,0.00,,,0.00,VWS V12.08,2013-05-13 23:10:00,
2013-05-13 19:15:00,66.6,38.1,0.00,North,0,0.0,0.0,35,0.00,,,0.00,VWS V12.08,2013-05-13 23:15:00,
2013-05-13 19:20:00,66.2,37.8,0.00,North,0,0.0,0.0,35,0.00,,,0.00,VWS V12.08,2013-05-13 23:20:00,
2013-05-13 19:25:00,66.2,37.8,0.00,North,0,0.0,0.0,35,0.00,,,0.00,VWS V12.08,2013-05-13 23:25:00,
2013-05-13 19:29:00,61.2,34.7,0.00,North,0,0.0,0.0,37,0.00,,,0.00,VWS V12.08,2013-05-13 23:29:00,
2013-05-13 19:30:00,66.0,37.6,0.00,North,0,0.0,0.0,35,0.00,,,0.00,VWS V12.08,2013-05-13 23:30:00,
2013-05-13 19:31:00,61.0,34.5,0.00,North,0,0.0,0.0,37,0.00,,,0.00,VWS V12.08,2013-05-13 23:31:00,
2013-05-13 19:32:00,61.0,34.5,0.00,North,0,0.0,0.0,37,0.00,,,0.00,VWS V12.08,2013-05-13 23:32:00,
2013-05-13 19:33:00,61.0,34.5,0.00,North,0,0.0,0.0,37,0.00,,,0.00,VWS V12.08,2013-05-13 23:33:00,
2013-05-13 19:34:00,60.8,34.4,0.00,North,0,0.0,0.0,37,0.00,,,0.00,VWS V12.08,2013-05-13 23:34:00,
2013-05-13 19:35:00,65.8,37.5,0.00,North,0,0.0,0.0,35,0.00,,,0.00,VWS V12.08,2013-05-13 23:35:00,
2013-05-13 19:40:00,65.7,37.3,0.00,North,0,0.0,0.0,35,0.00,,,0.00,VWS V12.08,2013-05-13 23:40:00,
2013-05-13 19:45:00,65.5,37.1,0.00,North,0,0.0,0.0,35,0.00,,,0.00,VWS V12.08,2013-05-13 23:45:00,
2013-05-13 19:50:00,65.3,37.0,0.00,North,0,0.0,0.0,35,0.00,,,0.00,VWS V12.08,2013-05-13 23:50:00,
2013-05-13 19:55:00,64.8,36.5,0.00,North,0,0.0,0.0,35,0.00,,,0.00,VWS V12.08,2013-05-13 23:55:00,
2013-05-13 20:00:00,64.6,36.3,0.00,North,0,0.0,0.0,35,0.00,,,0.00,VWS V12.08,2013-05-14 00:00:00,
2013-05-13 20:05:00,64.4,36.2,0.00,North,0,0.0,0.0,35,0.00,,,0.00,VWS V12.08,2013-05-14 00:05:00,
2013-05-13 20:10:00,64.0,37.3,0.00,North,0,0.0,0.0,37,0.00,,,0.00,VWS V12.08,2013-05-14 00:10:00,
2013-05-13 20:15:00,63.3,36.6,0.00,North,0,0.0,0.0,37,0.00,,,0.00,VWS V12.08,2013-05-14 00:15:00,
2013-05-13 20:20:00,62.4,35.8,0.00,North,0,0.0,0.0,37,0.00,,,0.00,VWS V12.08,2013-05-14 00:20:00,
2013-05-13 20:25:00,61.7,35.2,0.00,North,0,0.0,0.0,37,0.00,,,0.00,VWS V12.08,2013-05-14 00:25:00,
2013-05-13 20:29:00,58.1,33.3,0.00,North,0,0.0,0.0,39,0.00,,,0.00,VWS V12.08,2013-05-14 00:29:00,
2013-05-13 20:30:00,58.1,33.3,0.00,North,0,0.0,0.0,39,0.00,,,0.00,VWS V12.08,2013-05-14 00:30:00,
2013-05-13 20:31:00,58.1,33.3,0.00,North,0,0.0,0.0,39,0.00,,,0.00,VWS V12.08,2013-05-14 00:31:00,
2013-05-13 20:32:00,58.1,33.3,0.00,North,0,0.0,0.0,39,0.00,,,0.00,VWS V12.08,2013-05-14 00:32:00,
2013-05-13 20:33:00,58.1,33.3,0.00,North,0,0.0,0.0,39,0.00,,,0.00,VWS V12.08,2013-05-14 00:33:00,
2013-05-13 20:34:00,61.0,34.5,0.00,North,0,0.0,0.0,37,0.00,,,0.00,VWS V12.08,2013-05-14 00:34:00,
2013-05-13 20:39:00,60.6,35.5,0.00,North,0,0.0,0.0,39,0.00,,,0.00,VWS V12.08,2013-05-14 00:39:00,
2013-05-13 20:44:00,60.1,35.1,0.00,North,0,0.0,0.0,39,0.00,,,0.00,VWS V12.08,2013-05-14 00:44:00,
2013-05-13 20:49:00,59.7,34.7,0.00,North,0,0.0,0.0,39,0.00,,,0.00,VWS V12.08,2013-05-14 00:49:00,
2013-05-13 20:54:00,59.4,34.4,0.00,North,0,0.0,0.0,39,0.00,,,0.00,VWS V12.08,2013-05-14 00:54:00,
2013-05-13 20:59:00,59.0,34.1,0.00,North,0,0.0,0.0,39,0.00,,,0.00,VWS V12.08,2013-05-14 00:59:00,
2013-05-13 21:00:00,64.6,36.3,0.00,North,0,0.0,0.0,35,0.00,,,0.00,VWS V12.08,2013-05-14 01:00:00,
2013-05-13 21:04:00,58.6,33.8,0.00,North,0,0.0,0.0,39,0.00,,,0.00,VWS V12.08,2013-05-14 01:04:00,
2013-05-13 21:09:00,58.3,33.5,0.00,North,0,0.0,0.0,39,0.00,,,0.00,VWS V12.08,2013-05-14 01:09:00,
2013-05-13 21:14:00,58.1,33.3,0.00,North,0,0.0,0.0,39,0.00,,,0.00,VWS V12.08,2013-05-14 01:14:00,
2013-05-13 21:19:00,57.9,33.1,0.00,North,0,0.0,0.0,39,0.00,,,0.00,VWS V12.08,2013-05-14 01:19:00,
2013-05-13 21:24:00,57.9,33.1,0.00,North,0,0.0,0.0,39,0.00,,,0.00,VWS V12.08,2013-05-14 01:24:00,
2013-05-13 21:29:00,57.9,33.1,0.00,North,0,0.0,0.0,39,0.00,,,0.00,VWS V12.08,2013-05-14 01:29:00,
2013-05-13 21:30:00,55.9,31.4,0.00,North,0,0.0,0.0,39,0.00,,,0.00,VWS V12.08,2013-05-14 01:30:00,
2013-05-13 21:31:00,55.8,31.2,0.00,North,0,0.0,0.0,39,0.00,,,0.00,VWS V12.08,2013-05-14 01:31:00,
2013-05-13 21:35:00,58.1,33.3,0.00,North,0,0.0,0.0,39,0.00,,,0.00,VWS V12.08,2013-05-14 01:35:00,
2013-05-13 21:40:00,58.3,33.5,0.00,North,0,0.0,0.0,39,0.00,,,0.00,VWS V12.08,2013-05-14 01:40:00,
2013-05-13 21:45:00,58.3,33.5,0.00,North,0,0.0,0.0,39,0.00,,,0.00,VWS V12.08,2013-05-14 01:45:00,
2013-05-13 21:50:00,58.3,33.5,0.00,North,0,0.0,0.0,39,0.00,,,0.00,VWS V12.08,2013-05-14 01:50:00,
2013-05-13 21:55:00,58.1,33.3,0.00,North,0,0.0,0.0,39,0.00,,,0.00,VWS V12.08,2013-05-14 01:55:00,
2013-05-13 22:00:00,57.6,32.8,0.00,North,0,0.0,0.0,39,0.00,,,0.00,VWS V12.08,2013-05-14 02:00:00,
2013-05-13 22:05:00,57.2,32.5,0.00,North,0,0.0,0.0,39,0.00,,,0.00,VWS V12.08,2013-05-14 02:05:00,
2013-05-13 22:10:00,56.8,32.2,0.00,North,0,0.0,0.0,39,0.00,,,0.00,VWS V12.08,2013-05-14 02:10:00,
2013-05-13 22:15:00,56.3,31.7,0.00,North,0,0.0,0.0,39,0.00,,,0.00,VWS V12.08,2013-05-14 02:15:00,
2013-05-13 22:20:00,56.3,31.7,0.00,North,0,0.0,0.0,39,0.00,,,0.00,VWS V12.08,2013-05-14 02:20:00,
2013-05-13 22:25:00,56.1,31.5,0.00,North,0,0.0,0.0,39,0.00,,,0.00,VWS V12.08,2013-05-14 02:25:00,
2013-05-13 22:30:00,55.9,31.4,0.00,North,0,0.0,0.0,39,0.00,,,0.00,VWS V12.08,2013-05-14 02:30:00,
2013-05-13 23:30:00,55.9,31.4,0.00,North,0,0.0,0.0,39,0.00,,,0.00,VWS V12.08,2013-05-14 03:30:00,